TimePST,TemperatureF,Dew PointF,Humidity,Sea Level PressureIn,VisibilityMPH,Wind Direction,Wind SpeedMPH,Gust SpeedMPH,PrecipitationIn,Events,Conditions,WindDirDegrees,DateUTC
12:53 AM,10.9,3.9,73,30.27,10.0,SW,3.5,-,N/A,,Clear,230,2013-12-05 08:53:00
1:53 AM,8.1,3.0,80,30.27,10.0,NE,3.5,-,N/A,,Clear,50,2013-12-05 09:53:00
2:53 AM,8.1,1.9,76,30.27,10.0,Calm,Calm,-,N/A,,Clear,0,2013-12-05 10:53:00
3:53 AM,7.0,1.0,77,30.27,10.0,Calm,Calm,-,N/A,,Clear,0,2013-12-05 11:53:00
4:53 AM,3.0,-2.0,80,30.29,10.0,Calm,Calm,-,N/A,,Clear,0,2013-12-05 12:53:00
5:53 AM,5.0,-0.0,80,30.31,10.0,Calm,Calm,-,N/A,,Clear,0,2013-12-05 13:53:00
6:53 AM,1.9,-2.9,80,30.33,10.0,Calm,Calm,-,N/A,,Clear,0,2013-12-05 14:53:00
7:53 AM,3.0,-0.9,84,30.33,10.0,Calm,Calm,-,N/A,,Clear,0,2013-12-05 15:53:00
8:53 AM,10.9,6.1,81,30.34,10.0,Calm,Calm,-,N/A,,Clear,0,2013-12-05 16:53:00
9:53 AM,16.0,9.0,74,30.33,10.0,Calm,Calm,-,N/A,,Clear,0,2013-12-05 17:53:00
10:53 AM,21.0,10.0,63,30.31,10.0,Calm,Calm,-,N/A,,Clear,0,2013-12-05 18:53:00
11:53 AM,25.0,9.0,51,30.27,10.0,WSW,3.5,-,N/A,,Clear,240,2013-12-05 19:53:00
12:53 PM,27.0,8.1,45,30.24,10.0,Calm,Calm,-,N/A,,Clear,0,2013-12-05 20:53:00
1:53 PM,28.9,8.1,41,30.22,10.0,West,3.5,-,N/A,,Clear,260,2013-12-05 21:53:00
2:53 PM,30.9,7.0,37,30.19,10.0,West,3.5,-,N/A,,Scattered Clouds,260,2013-12-05 22:53:00
3:53 PM,30.0,7.0,38,30.20,10.0,SW,3.5,-,N/A,,Scattered Clouds,230,2013-12-05 23:53:00
4:53 PM,28.0,8.1,43,30.20,10.0,Calm,Calm,-,N/A,,Overcast,0,2013-12-06 00:53:00
5:53 PM,19.0,3.9,52,30.21,10.0,Calm,Calm,-,N/A,,Mostly Cloudy,0,2013-12-06 01:53:00
6:53 PM,15.1,3.0,59,30.23,10.0,Calm,Calm,-,N/A,,Overcast,0,2013-12-06 02:53:00
7:53 PM,21.0,8.1,57,30.21,10.0,Calm,Calm,-,N/A,,Overcast,0,2013-12-06 03:53:00
8:53 PM,19.0,8.1,62,30.21,10.0,Calm,Calm,-,N/A,,Mostly Cloudy,0,2013-12-06 04:53:00
9:53 PM,12.9,3.9,67,30.21,10.0,Calm,Calm,-,N/A,,Clear,0,2013-12-06 05:53:00
10:53 PM,16.0,7.0,68,30.20,10.0,Calm,Calm,-,N/A,,Scattered Clouds,0,2013-12-06 06:53:00
11:53 PM,18.0,8.1,65,30.19,10.0,SE,3.5,-,N/A,,Partly Cloudy,140,2013-12-06 07:53:00